This is the latest recevied weather packets stored in our database for station/object KG5WBN. If no packets are shown the sender has not sent any weather packets the latest 10 day(s).
| Time | Temp. | Humidity | Pressure | Rain* | Wind** | Luminosity | Snow |
|---|---|---|---|---|---|---|---|
| 1777724767 | 15.56° C | 99% | 1013.9 hPa | 0 mm | - | 18 W/m² | - |
| 1777724464 | 15.56° C | 99% | 1014.2 hPa | 0 mm | - | 13 W/m² | - |
| 1777724162 | 15.56° C | 99% | 1013.9 hPa | 0 mm | - | 10 W/m² | - |
| 1777723859 | 16.11° C | 99% | 1013.9 hPa | 0 mm | - | 14 W/m² | - |
| 1777723554 | 15.56° C | 99% | 1013.5 hPa | 0 mm | - | 10 W/m² | - |
| 1777723251 | 15.56° C | 99% | 1013.5 hPa | 0 mm | - | 6 W/m² | - |
| 1777722950 | 15.56° C | 99% | 1013.5 hPa | 0 mm | - | 6 W/m² | - |
| 1777722645 | 16.11° C | 99% | 1013.5 hPa | 0 mm | - | 3 W/m² | - |
| 1777722342 | 16.11° C | 99% | 1013.5 hPa | 0 mm | - | 1 W/m² | - |
| 1777722039 | 16.11° C | 99% | 1013.2 hPa | 0 mm | - | 1 W/m² | - |
| 1777721737 | 16.67° C | 99% | 1013.2 hPa | 0 mm | - | 0 W/m² | - |
| 1777721435 | 16.67° C | 99% | 1013.2 hPa | 0 mm | - | 0 W/m² | - |
| 1777721132 | 16.67° C | 99% | 1012.9 hPa | 0 mm | - | 0 W/m² | - |
| 1777720830 | 16.67° C | 99% | 1012.9 hPa | 0 mm | - | 0 W/m² | - |
| 1777720527 | 16.67° C | 99% | 1012.9 hPa | 0 mm | - | 0 W/m² | - |
| 1777720225 | 16.67° C | 99% | 1012.9 hPa | 0 mm | - | 0 W/m² | - |
| 1777719922 | 16.67° C | 99% | 1012.5 hPa | 0 mm | - | 0 W/m² | - |
| 1777719620 | 16.67° C | 99% | 1012.9 hPa | 0 mm | - | 0 W/m² | - |
| 1777719316 | 16.67° C | 99% | 1012.5 hPa | 0 mm | - | 0 W/m² | - |
| 1777719014 | 16.11° C | 99% | 1012.5 hPa | 0 mm | - | 0 W/m² | - |
| 1777718711 | 16.67° C | 99% | 1012.5 hPa | 0 mm | - | 0 W/m² | - |
| 1777718409 | 16.67° C | 99% | 1012.5 hPa | 0 mm | - | 0 W/m² | - |
| 1777718106 | 16.67° C | 99% | 1012.2 hPa | 0 mm | - | 0 W/m² | - |
| 1777717804 | 16.67° C | 99% | 1012.5 hPa | 0 mm | - | 0 W/m² | - |
| 1777717500 | 16.67° C | 99% | 1012.2 hPa | 0 mm | - | 0 W/m² | - |
* Rain latest hour (hover to see other rain measurements)
** Current wind speed in m/s (hover to see current wind gust speed)